Preview of NWS' New Version of Forecast
This preview is not operational and should not be used for support decisions.

Regional Weather Roundup (RWR)

Issued by National Weather Service (NWS)

                            
000
ASUS43 KDMX 180901
RWRIA 

WEATHER ROUNDUP FOR IOWA
NATIONAL WEATHER SERVICE DES MOINES IA
400 AM CDT THU APR 18 2019

NOTE: "FAIR" INDICATES FEW OR NO CLOUDS BELOW 12,000 FEET WITH NO
SIGNIFICANT WEATHER AND/OR OBSTRUCTIONS TO VISIBILITY.

* - THESE STATIONS ARE NOT NWS STATIONS...THUS NOT UNDER NWS
QUALITY CONTROL.  THEY ALSO DO NOT REPORT WEATHER SUCH 
AS PRECIPITATION OR FOG.  

IAZ001>003-012>014-020>022-031>034-043>046-181000-
   NORTHWEST IOWA
  
CITY           SKY/WX    TMP DP  RH WIND       PRES   REMARKS
CARROLL *      CLOUDY    45  41  87 N22G29    29.76R                  
CHEROKEE *     CLEAR     38  38  99 NW6       29.77R WCI  33          
DENISON *      CLOUDY    41  39  93 N14       29.80R                  
LE MARS *      CLOUDY    41  41 100 NW9       29.79F                  
SHELDON *      PTCLDY    37  37 100 NW9       29.76R WCI  31          
SIOUX CITY     CLEAR     42  39  89 NW8       29.81R                  
SPENCER        CLEAR     41  37  86 NW14      29.75R                  
STORM LAKE *   CLOUDY    39  39 100 NW13      29.73R WCI  32          
$$
 
IAZ055>058-069>071-079>083-090>094-181000-
   SOUTHWEST IOWA
  
CITY           SKY/WX    TMP DP  RH WIND       PRES   REMARKS
ATLANTIC *     CLOUDY    45  45 100 N13G21    29.76R                  
AUDUBON *      CLOUDY    43  37  81 CALM      29.77R                  
CLARINDA *     CLOUDY    46  41  81 N10G16    29.79R                  
COUNCIL BLFS * CLOUDY    46  46 100 NW13G22   29.78R                  
CRESTON *      CLOUDY    45  39  81 NW16G22   29.75R                  
HARLAN  *      CLOUDY    43  41  93 N14G22    29.77R                  
LAMONI         CLOUDY    46  39  76 N12       29.72R                  
RED OAK *      CLOUDY    46  41  81 NW10G17   29.78R                  
SHENANDOAH *   CLOUDY    46  43  87 N8        29.78R                  
$$
 
IAZ047>049-059>061-072>074-084-181000-
   CENTRAL IOWA
  
CITY           SKY/WX    TMP DP  RH WIND       PRES   REMARKS
AMES           CLOUDY    44  37  76 N17G30    29.73R                  
ANKENY *       CLOUDY    45  39  81 MISG      29.74R                  
BOONE *        CLOUDY    43  41  93 N20G29    29.72R                  
CHARITON *     CLOUDY    45  41  87 NW12G18   29.71S                  
DES MOINES     CLOUDY    45  37  73 NW14      29.73R                  
GRINNELL*      CLOUDY    44  41  87 NW14      29.69R                  
KNOXVILLE *    CLOUDY    46  46 100 NW10G16   29.71R                  
MARSHALLTOWN   CLOUDY    44  40  85 N15       29.68S                  
NEWTON *       CLOUDY    45  43  93 N16G23    29.70R                  
PELLA *        CLOUDY    46  40  78 NW15      29.72R                  
PERRY *        CLOUDY    45  40  84 NW17      29.74R                  
$$
 
IAZ004>006-015-016-023>025-035-036-181000-
   NORTH CENTRAL IOWA
  
CITY           SKY/WX    TMP DP  RH WIND       PRES   REMARKS
ALGONA *       CLOUDY    43  41  93 N15G23    29.70R                  
CLARION *      CLOUDY    43  39  87 N16G28    29.71R                  
ESTHERVILLE    CLOUDY    40  37  89 N23G30    29.73R WCI  30          
FORT DODGE *   CLOUDY    43  37  79 N12G22    29.73R                  
MASON CITY     CLOUDY    41  39  93 NW18G30   29.69R                  
FOREST CITY *  CLOUDY    41  39  93 N17G25    29.68R                  
IOWA FALLS *   CLOUDY    43  39  87 NW21G26   29.70R                  
$$

IAZ007>011-017>019-026>030-037>042-050>054-066-181000-
   NORTHEAST IOWA
  
CITY           SKY/WX    TMP DP  RH WIND       PRES   REMARKS
CHARLES CITY * CLOUDY    41  39  93 NW16      29.66R                  
CLINTON *      CLOUDY    48  46  93 W16       29.62S                  
DECORAH *      CLOUDY    43  39  87 NW8G14    29.62R                  
DUBUQUE        CLOUDY    46  42  86 W14       29.60F                  
MONTICELLO *   CLOUDY    48  45  87 NW16G24   29.61F                  
OELWEIN *      CLOUDY    43  43 100 NW16      29.64R                  
WATERLOO       CLOUDY    45  39  79 NW17      29.66R                  
$$
 
IAZ064-065-067-068-078-181000-
   EAST CENTRAL IOWA
  
CITY           SKY/WX    TMP DP  RH WIND       PRES   REMARKS
DAVENPORT      CLOUDY    48  44  86 W12       29.65S                  
IOWA CITY      CLOUDY    48  42  80 W9        29.68S                  
MT. PLEASANT * CLOUDY    46  45  93 NW9G16    29.66S                  
MUSCATINE *    CLOUDY    50  43  76 W13       29.66F                  
QUAD CITIES    CLOUDY    50  45  83 W15       29.62F                  
$$
 
IAZ062-063-075>077-085>089-095>099-181000-
   SOUTHEAST IOWA
  
CITY           SKY/WX    TMP DP  RH WIND       PRES   REMARKS
BURLINGTON     RAIN      48  45  89 N12       29.64R FOG              
FAIRFIELD *    CLOUDY    46  43  87 NW9       29.66F                  
FORT MADISON * LGT RAIN  48  48 100 N12       29.63F                  
KEOKUK *       LGT RAIN  48  48 100 N13       29.59F                  
OSKALOOSA *    CLOUDY    46  40  77 NW10      29.70S                  
CENTERVILLE *  CLOUDY    46  43  87 NW9       29.70F                  
OTTUMWA        CLOUDY    47  40  76 NW15      29.69F                  
WASHINGTON *   CLOUDY    48  46  93 W9        29.68F                  
$$

ABBREVIATIONS USED IN REMARKS
   TC - TEMPERATURES IN CELSIUS
  WCI - WIND CHILL INDEX
   HX - HEAT INDEX
  VSB - VISIBILITY  
$$